www.pogodaiklimat.ru

Погода и климат >> Архив погоды >> Россия >> Камчатский край >> Козыревск


ПОГОДА в Козыревске

  • Прогноз погоды в Козыревске
  • Монитор погоды в Козыревске

АРХИВ ПОГОДЫ в Козыревске

Время (UTC), дата Ветер
(напр.,м/с)
 
Видим.   Явления Облачность Т
(С)
Тd
(С)
f
(%)
Тe
(С)
Тes
(С)
Комфортность P
(гПа)
Po
(гПа)
Тmin
(С)
Tmax
(С)
R
(мм)
R24
(мм)
S
(см)
12 17.01 СВ 9-17
{20}
2000 м слаб. ливневой снег {метель} 9/5 600 м
[Cb cap Ac und]
-16.9 -19.8 78 -29 -29 998.2 992.9
15 17.01 СВ 6-12
{18}
4000 м слаб. ливневой снег {метель} 10/5 600 м
[Cb cap Ac As]
-14.8 -18.1 76 -24 -24 1000.1 994.8
18 17.01 С 1
{12}
10 км слаб. ливневой снег {метель} 10/6 600 м
[Cb cap Ac As]
-16.5 -18.8 82 -19 -19 1001.8 996.5
21 17.01 Ю 1 50 км в посл. час ливневой снег 8/8 600 м
[Cb cap]
-19.0 -21.2 83 -22 -22 1002.7 997.3 -19.0 4 114
00 18.01 Ю 2 50 км {ливн. осадки} ясно -18.8 -21.1 82 -24 -23 1004.0 998.6 -23.9
03 18.01 ЮЗ 2 50 км ясно -15.7 -19.5 73 -21 -20 1002.4 997.1
06 18.01 штиль 0 50 км ясно -22.9 -25.2 81 -23 -23 1001.8 996.4
09 18.01 штиль 0 50 км ясно -28.6 -31.9 73 -29 -29 1002.6 997.0 -14.7
12 18.01 ЮВ 1 50 км ясно -30.7 -34.3 71 -35 -35 опасность
обморожения
1003.0 997.4
15 18.01 З 1 20 км 8/0
[Ac trans]
-27.0 -30.0 76 -31 -31 опасность
обморожения
1002.4 996.8
18 18.01 Ю 1 50 км 10/0
[Ac As]
-21.8 -24.5 79 -25 -25 1001.9 996.5
21 18.01 СЗ 3 50 км 10/4 600 м
[Sc Ac As]
-14.9 -16.8 85 -21 -21 999.8 994.6 -32.5 112
00 19.01 ЮЗ 2
{12}
10 км слаб. ливневой снег 10/6 600 м
[Cb cap Ac As]
-20.1 -22.5 81 -26 -26 1000.5 995.1
03 19.01 Ю 1 4000 м ливневой снег 10/8 600 м
[Cb cap Ac As]
-17.0 -19.2 83 -20 -20 997.4 992.1
06 19.01 Ю 2 4000 м ливневой снег 10/8 600 м
[Cb cap Ac As]
-16.5 -18.6 84 -22 -22 996.9 991.6
09 19.01 Ю 1 4000 м слаб. ливневой снег 10/8 600 м
[Cb cap Ac As]
-15.6 -17.5 85 -18 -18 995.2 990.0 -11.5 5
12 19.01 С 6-10
{14}
4000 м слаб. ливневой снег {метель} 10/8 600 м
[Cb cap Ac As]
-4.2 -5.3 92 -12 -12 993.2 988.1
15 19.01 ЮВ 3
{13}
20 км {ливн. осадки} 10/8 600 м
[Cb cap Ac As]
-9.5 -10.9 90 -15 -15 993.6 988.4
18 19.01 С 7-15
{15}
10 км слаб. ливневой снег {метель} 9/6 600 м
[Cb cap Ac und]
-1.4 -2.4 93 -9 -9 992.4 987.4
21 19.01 С 6-14
{15}
10 км позёмок {ливн. осадки} 9/5 600 м
[Sc Ac und]
-0.1 -1.0 94 -7 -7 991.6 986.7 -15.6 2 112
00 20.01 С 6-10
{14}
50 км позёмок {ливн. осадки} 8/5 600 м
[Sc Ac und]
+1.1 -2.9 75 -5 -5 992.3 987.4
03 20.01 С 7-14
{18}
50 км позёмок 8/4 600 м
[Sc Ac trans]
+0.8 -2.1 81 -6 -6 990.9 986.0
06 20.01 С 8-18
{18}
50 км позёмок 10/4 600 м
[Sc Ac As]
0.0 -1.6 89 -8 -8 990.2 985.3
09 20.01 С 6-10
{18}
4000 м ливневой снег {метель} 10/8 600 м
[Cb cap Ac As]
-0.7 -1.3 96 -8 -8 989.9 985.0 +1.5 9
12 20.01 С 5
{18}
10 км слаб. ливневой снег 10/6 600 м
[Cb cap Ac As]
-0.7 -2.3 89 -7 -7 990.6 985.6
15 20.01 СЗ 4
{11}
20 км {ливн. осадки} 6/4 600 м
[Sc Ac trans]
-1.0 -2.8 88 -7 -7 992.6 987.7
18 20.01 СЗ 3 50 км {ливн. осадки} 6/4 600 м
[Sc Ac trans]
-1.5 -4.5 80 -6 -6 996.9 991.9
21 20.01 ЮЗ 1 50 км 6/4 600 м
[Sc Ac trans]
-3.8 -5.9 85 -6 -6 998.9 993.9 -3.8 0.5 117
00 21.01 СЗ 3 50 км 8/0
[Ac trans Ci fib]
-0.1 -3.6 77 -5 -4 1000.9 996.0 -4.4
03 21.01 С 6-12
{13}
50 км 10/0
[Ac As]
+0.5 -4.8 68 -6 -6 1000.7 995.7
06 21.01 С 5-10
{14}
50 км 9/5 600 м
[Sc Ac und]
-0.5 -2.1 89 -7 -7 1000.2 995.2
09 21.01 С 4
{10}
50 км 9/5 600 м
[Sc Ac trans]
+0.1 -1.9 86 -5 -5 1000.4 995.4 +1.9
12 21.01 С 4
{12}
20 км 10/5 600 м
[Sc Ac As]
+0.1 -1.9 86 -5 -5 1000.5 995.5
15 21.01 С 5-11
{13}
20 км 10/5 600 м
[Sc Ac As]
-0.1 -2.2 86 -6 -6 1001.0 996.0
18 21.01 С 6
{14}
50 км 10/5 600 м
[Sc Ac As]
-0.3 -2.3 86 -7 -7 1001.7 996.7
21 21.01 С 5-10
{12}
50 км 6/4 600 м
[Sc Ac trans]
-0.8 -2.8 86 -7 -7 1003.4 998.4 -0.8 112
00 22.01 С 6
{13}
2 балла 77 1001.3
03 22.01 С 8-15
{18}
50 км позёмок 5/0
[Ac trans]
-0.6 -2.7 86 -8 -8 1006.7 1001.7
06 22.01 С 9
{18}
2 балла 73 1002.7
09 22.01 С 8-16
{18}
50 км позёмок 3/3 600 м
[Sc]
-2.1 -6.1 74 -10 -10 1007.7 1002.7 +0.8
12 22.01 С 5-10
{16}
50 км {метель} 3/3 600 м
[Sc]
-2.4 -6.8 72 -9 -9 1009.5 1004.4
15 22.01 С 2
{10}
20 км 8/3 1000 м
[Sc Ci fib]
-5.0 -8.4 77 -9 -9 1008.3 1003.2
18 22.01 В 1 50 км 8/3 1000 м
[Sc Ci fib]
-13.2 -14.4 91 -16 -16 1007.2 1001.9
21 22.01 ЮВ 1
{16}
50 км 5/0
[Ci fib]
-17.4 -19.4 84 -20 -20 1006.8 1001.4 -17.6 105
00 23.01 В 1 7 баллов 88 1001.3
03 23.01 В 1 50 км 6/0
[Ac trans]
-10.8 -12.2 89 -13 -12 1004.9 999.7
06 23.01 штиль 0 ясно 85 998.7
09 23.01 СЗ 2
{3}
ясно 87 996.0
12 23.01 С 8
{17}
ясно 62 997.3
15 23.01 С 8
{21}
метель н/о 61 998.7
18 23.01 СЗ 4
{16}
ясно 67 998.7
21 23.01 ЮВ 1
{21}
50 км ясно -19.5 -22.3 78 -22 -22 1004.1 998.7 -19.5
00 24.01 ЮЗ 1 50 км 2 балла -14.1 -19.4 64 -17 -15 1005.3 1000.0 -19.6
03 24.01 штиль 0 50 км 2 балла -10.8 -18.7 52 -11 -10 1003.9 998.7
06 24.01 штиль 0 50 км 4 балла -17.7 -21.3 73 -18 -18 1004.1 998.7
09 24.01 ЮВ 1
{7}
50 км ясно -22.4 -24.8 81 -26 -26 1005.5 1000.0 -10.5

 

Местоположение метеостанции Козыревск (Камчатский край, Россия): широта 56.05 долгота 159.80 высота над уровнем моря 40 м.

В архиве по умолчанию представлена погода в Козыревске за последнюю неделю. Архивные данные за месяц целиком и за предыдущие месяцы, начиная с января 2011 года, Вы можете получить, выбрав интересующий диапазон дат из раскрывающегося списка и нажав кнопку "Ввод!".


*Определитесь, кто Вы:
робот инопланетянин человек

Внимание! Время в таблицах - всемирное. Для получения местного времени необходимо прибавить поправку, которая равна 12 ч.

Смотрите также архив погоды в соседних городах и на ближайших метеорологических станциях:

Погода в Ключах (Камчатский край, Россия) (69 км)
Погода в Эссо (Камчатский край, Россия) (70 км)
Погода в Долиновке (Камчатский край, Россия) (115 км)
Погода в Мильково (Камчатский край, Россия) (173 км)
Погода в Усть-Камчатске (Камчатский край, Россия) (181 км)
Погода в Тигиле (Камчатский край, Россия) (203 км)
Погода в Семячике (Камчатский край, Россия) (215 км)
Погода на Мысе Африка (Камчатский край, Россия) (217 км)
Погода в Усть-Хайрюзово (Камчатский край, Россия) (222 км)
Погода в Пущино (Камчатский край, Россия) (237 км)

Пояснения к столбцам:

Ветер - указаны скорость ветра в м/с - средняя за 10 мин, порывы в срок и между сроками (в фигурных скобках) и направление, откуда дует ветер: С - северный, СВ - северо-восточный, В - восточный, ЮВ - юго-восточный, Ю - южный, ЮЗ - юго-западный, З - западный, СЗ - северо-западный.
Видимость - горизонтальная дальность видимости в метрах или километрах. При видимости от 1 до 10 км при отсутствии осадков обычно наблюдается дымка, при ухудшении видимости до 1 км и менее - туман. В сухую погоду видимость может ухудшаться дымом, пылью или мглою.
Явления - указаны атмосферные явления, наблюдавшиеся в срок или в последний час перед сроком; фигурными скобками обозначены явления, наблюдавшиеся между сроками (за 1-3 часа до срока); квадратными скобками обозначены град или гололедные отложения с указанием их диаметра в мм.
Облачность - указаны через наклонную черту общая и нижняя облачность в баллах и высота нижней границы облаков в метрах; квадратными скобками обозначены формы облаков: Ci - перистые, Cs - перисто-слоистые, Cc - перисто-кучевые, Ac - высококучевые, As - высокослоистые, Sc - слоисто-кучевые, Ns - слоисто-дождевые, Cu - кучевые, Cb - кучево-дождевые. Подробнее классификацию облаков см. в Атласе облаков (PDF).
T - Температура воздуха - температура, измеренная на высоте 2 м над землей.
Td - Температура точки росы - температура, при понижении до которой содержащийся в воздухе водяной пар достигнет насыщения.
f - Относительная влажность воздуха - влажноcть воздуха, измеренная на высоте 2 м над землей.
Te - Эффективная температура - температура, которую ощущает одетый по сезону человек в тени. Характеристика душности погоды. При расчете учитывается влияние влажности воздуха и скорости ветра на теплоощущения человека.
Tes - Эффективная температура на солнце - температура, которую ощущает человек, с поправкой на солнечный нагрев. Характеристика знойности погоды. Зависит от высоты солнца над горизонтом, облачности и скорости ветра. Ночью, в пасмурную погоду, а также при ветре 12 м/с и более поправка равна нулю.
P - Атмосферное давление - приведенное к уровню моря атмосферное давление.
Po - Атмосферное давление - измеренное на уровне метеостанции атмосферное давление.
Tmin - Минимальная температура - минимум температуры воздуха на высоте 2 м над землей.
Tmax - Максимальная температура - максимум температуры воздуха на высоте 2 м над землей.
R - Количество осадков - Количество выпавших осадков за период времени, мм. При наведении курсора мыши на число - период времени, за который выпало указанное количество осадков.
R24 - Количество осадков - Количество выпавших осадков за 24 часа, мм.
S - Снежный покров - Высота снежного покрова, см. При наведении курсора мыши на число - состояние снежного покрова и степень покрытия местности в баллах.